Regional Weather Roundup
Issued by NWS

Home | Current Version | Previous Version | Graphics & Text | Print | Product List | Glossary On
Versions: 1 2 3 4 5 6 7 8 9 10 11 12 13 14 15 16 17 18 19 20 21 22 23 24 25 26 27 28 29 30 31 32 33 34 35 36 37 38 39 40 41 42 43 44 45 46 47 48 49 50
000
ASUS45 KSLC 022010
RWRUT

UTAH REGIONAL WEATHER ROUNDUP
NATIONAL WEATHER SERVICE SALT LAKE CITY UT
100 PM MST FRI DEC 02 2016

UTZ001>011-023>025-022100-

NORTHERN UTAH

CITY           SKY/WX    TMP DP  RH WIND       PRES   REMARKS
BRIGHAM CITY     N/A     36  18  47 NW7       30.25F WCI  31
HILL AFB       SUNNY     31  17  57 W3        30.22S
LOGAN          SUNNY     33  21  61 NE6       30.25F WCI  28
OGDEN          SUNNY     34  19  54 NW7       30.22F WCI  28
SALT LAKE CITY MOSUNNY   35  22  58 NW10      30.23F WCI  27
TOOELE VALLEY  SUNNY     32  27  80 CALM      30.25S
WENDOVER       SUNNY     36  14  41 N5        30.28F WCI  32
HEBER CITY     SUNNY     28  16  59 CALM      30.18S
WEST JORDAN    SUNNY     32  26  77 NW10      30.22S WCI  24

$$

UTZ011>015-024>027-022100-

CENTRAL/NORTHEAST UTAH

CITY           SKY/WX    TMP DP  RH WIND       PRES   REMARKS
PROVO AIRPORT  SUNNY     33  19  56 NW6       30.22F WCI  28
MOAB/CANYONLAN CLOUDY    40  17  39 NW5       30.06F
DELTA          PTSUNNY   32  18  55 N7        30.20S WCI  26
PRICE          MOSUNNY   35  12  38 NE10      30.08F WCI  27
ROOSEVELT      CLOUDY    36  14  41 CALM      30.17F
VERNAL         CLOUDY    32  15  49 SW3       30.15F

$$

UTZ013>016-019>022-027-022100-

SOUTHERN UTAH

CITY           SKY/WX    TMP DP  RH WIND       PRES   REMARKS
BRYCE CANYON   SUNNY     26  12  55 NE17      30.02  WCI  13
CEDAR CITY     CLOUDY    30  18  60 N12       30.10F WCI  20
MILFORD        LGT SNOW  31  23  72 N18G26    30.16F WCI  19
ST GEORGE      MOCLDY    48  18  29 N8        30.10F
HANKSVILLE     MOSUNNY   41  14  33 N5        30.11F
BLANDING       CLOUDY    40  19  43 CALM      30.06F

$$

REGIONAL REPORTS     COLORADO/ARIZONA

CITY           SKY/WX    TMP DP  RH WIND       PRES   REMARKS
CRAIG, CO      CLOUDY    24  16  71 SW7       30.12F WCI  16
GRAND JUNCTION CLOUDY    38  22  52 S3        30.07F
RIFLE, CO      CLOUDY    34  20  56 W8        30.07F WCI  27
MONTROSE, CO   CLOUDY    33  18  53 NW5       30.08F WCI  29
CORTEZ, CO     CLOUDY    39  22  50 SW10      29.97F WCI  32
COLORADO CITY    N/A     45  21  39 NW14      30.05F
PAGE, AZ       SUNNY     45  13  27 NE7       30.01F
GRAND CANYON   MOSUNNY   32  17  54 NE10      29.98F WCI  24
KINGMAN, AZ    SUNNY     49  16  26 N21       29.99F
FLAGSTAFF, AZ  FLURRIES  30  21  69 NE10G20   29.94F WCI  21

$$

REGIONAL REPORTS    NEVADA/IDAHO/WYOMING

CITY           SKY/WX    TMP DP  RH WIND       PRES   REMARKS
LAS VEGAS, NV  MOSUNNY   53  10  18 N16G28    30.09F
ELY, NY        SUNNY     27  13  55 N16       30.19F WCI  15
ELKO, NV       SUNNY     32  16  51 E3        30.28F
POCATELLO, ID  CLOUDY    25  21  85 W9        30.31F WCI  15
BURLEY, ID     CLOUDY    30  23  75 W8        30.31F WCI  22
FORT BRIDGER,    N/A     24  11  56 N6        30.18F WCI  17
EVANSTON, WY   SUNNY     23  12  62 N6        30.14F WCI  16
ROCK SPRINGS,  CLOUDY    23  15  71 SW5       30.15F WCI  17
KEMMERER, WY     N/A     27  10  50 SW3       30.14

$$



USA.gov is the U.S. government's official web portal to all federal, state and local government web resources and services.